[[{"header":{"parameterUnit":"m.s-1","parameterCategory":1,"la1":30.2991,"la2":30.254,"lo1":-89.0895,"lo2":-89.0444,"dy":0.0017,"dx":0.0017,"nx":28,"ny":28,"refTime":"2024-12-23T09:00:00:Z","depth":0,"parameterNumber":2,"parameterNumberName":"U-component_of_WINDS"},"data":[0,0,0,0,0,0,0,0,0,0,0,0,0,0,0,0,0,0,0,0,0,0,0,0,0,0,0,0,0,0,0,0,0,0,0,0,0,0,0,0,0,0,0,0,0,0,0,0,0,0,0,0,0,0,0,0,0,0,-4.9224,-4.9226,0,-4.9413,-4.9415,-4.9417,-4.934,-4.9335,-4.9331,-4.9327,-4.9523,-4.9532,-4.9541,0,0,0,0,0,0,0,0,0,0,0,0,0,-4.8798,-4.8806,-4.9223,-4.9226,-4.9228,-4.9413,-4.9415,-4.9418,-4.9341,-4.9335,-4.933,-4.9325,-4.952,-4.9531,-4.9542,0,0,0,0,0,0,0,0,0,0,0,0,0,-4.8985,-4.8809,-4.9223,-4.9212,-4.9213,-4.9412,-4.9415,-4.9419,-4.9342,-4.9335,-4.9328,-4.9322,-4.9516,-4.953,-4.9544,-4.9766,0,0,-4.9587,-4.9593,0,0,0,0,0,0,0,0,-4.8974,-4.9,-4.9211,-4.9213,-4.9214,-4.9346,-4.9337,-4.9535,-4.9344,-4.9293,-4.9327,-4.9319,-4.9469,-4.9487,-4.9537,-4.9775,-4.9783,-4.9588,-4.9596,-4.9603,-4.9607,0,0,0,0,0,0,0,-4.8961,-4.8992,-4.9298,-4.9214,-4.9216,-4.9199,-4.9218,-4.9374,-4.9417,-4.9297,-4.9292,-4.9315,-4.9469,-4.9524,-4.9541,-4.9786,-4.9588,-4.96,-4.9609,-4.9614,-5.0217,-5.0224,0,0,0,0,0,0,-4.8948,-4.8982,-4.9292,-4.9304,-4.9075,-4.9212,-4.9233,-4.9311,-4.9415,-4.9424,-4.9321,-4.9311,-4.9503,-4.9525,-4.9548,-4.9815,-4.9602,-4.9616,-4.9624,-5.0209,-5.0219,-5.0227,0,0,0,0,0,0,-4.8939,-4.8976,-4.9285,-4.9142,-4.918,-4.9226,-4.9314,-4.9318,-4.9372,-4.9433,-4.944,-4.9369,-4.9499,-4.9528,-4.9712,-4.982,-4.9622,-4.9635,-5.0201,-5.0212,-5.0223,-5.035,0,0,0,0,0,0,-4.8927,-4.8974,-4.9057,-4.9144,-4.9187,-4.9445,-4.9321,-4.9326,-4.9397,-4.9386,-4.948,-4.9489,-4.9496,-4.9692,-4.9726,-4.9836,-4.9646,-5.0191,-5.0206,-5.0219,-5.0336,-5.0364,-5.0388,0,0,0,0,0,-4.8912,-4.9086,-4.9062,-4.91,-4.9293,-4.9451,-4.9476,-4.948,-4.9406,-4.9491,-4.953,-4.9486,-4.9804,-4.9711,-4.975,-4.9865,-5.0184,-5.0202,-5.0218,-5.0325,-5.0359,-5.0388,0,0,0,0,0,0,-4.901,-4.9097,-4.9071,-4.9278,-4.9358,-4.9438,-4.9545,-4.9516,-4.9619,-4.9604,-4.9605,-4.9627,-4.9817,-4.986,-4.9755,-5.0087,-4.9983,-5.0008,-5.0051,-5.0084,-5.0109,-5.0094,-4.9658,0,0,0,0,0,-4.9056,-4.9177,-4.9246,-4.9422,-4.9464,-4.9498,-4.9567,-4.9563,-4.9646,-4.968,-4.9732,-4.9815,-4.9934,-5.0012,-5.0124,-5.0344,-5.0363,-5.0443,-5.0468,-5.0489,-5.0511,-5.063,-5.0666,-5.0282,-5.0282,-5.0282,0,0,-4.9152,-4.9214,-4.929,-4.9444,-4.9505,-4.963,-4.9527,-4.9664,-4.9757,-4.9701,-4.9877,-4.992,-5.0012,-5.0215,-5.0307,-5.0257,-5.0622,-5.0511,-5.0527,-5.0537,-5.0652,-5.0688,-5.072,-5.0294,-5.0292,-5.029,0,0,-4.9389,-4.9449,-4.9602,-4.9666,-4.9761,-4.9783,-4.982,-4.9906,-4.9931,-5.0109,-5.0069,-5.0182,-5.0386,-5.0454,-5.0515,-5.0783,-5.0746,-5.082,-5.0954,-5.1071,-5.1101,-5.1128,-5.1222,-5.1256,-5.0841,-5.0841,-5.0842,0,-4.9496,-4.9682,-4.9684,-4.9825,-4.9894,-4.985,-5.0005,-5.0068,-5.0195,-5.0244,-5.0186,-5.0443,-5.0502,-5.072,-5.0786,-5.0837,-5.088,-5.0807,-5.1096,-5.1123,-5.1148,-5.1238,-5.1274,-5.085,-5.0849,-5.0848,-5.0847,0,-4.9808,-4.9939,-5.0052,-5.0175,-5.0257,-5.0405,-5.043,-5.0514,-5.0505,-5.0534,-5.0716,-5.0786,-5.0912,-5.0965,-5.0957,-5.1183,-5.1149,-5.1095,-5.0989,-5.1193,-5.1278,-5.1312,-5.0861,-5.0858,-5.0856,-5.0854,0,0,-5.0109,-5.0234,-5.0275,-5.0331,-5.0434,-5.0535,-5.0683,-5.0806,-5.0877,-5.0968,-5.1091,-5.1266,-5.1217,-5.1287,-5.1287,-5.139,-5.1597,-5.1323,-5.1325,-5.137,-5.185,-5.1888,-5.1928,-5.1574,-5.1581,-5.1586,-5.1842,0,-5.0353,-5.0609,-5.0616,-5.0851,-5.0972,-5.0934,-5.1062,-5.114,-5.1172,-5.128,-5.1316,-5.144,-5.1366,-5.1408,-5.1509,-5.155,-5.1693,-5.1532,-5.1688,-5.1694,-5.1663,-5.1973,-5.2013,-5.2251,-5.1875,-5.1881,-5.1885,0,-5.067,-5.0771,-5.1017,-5.1105,-5.1156,-5.127,-5.1385,-5.1489,-5.1578,-5.1594,-5.1674,-5.1659,-5.1811,-5.1704,-5.1913,-5.1803,-5.1869,-5.1899,-5.1909,-5.1921,-5.1799,-5.1991,-5.2326,-5.2361,-5.1937,-5.1933,-5.1929,0,-5.0863,-5.1061,-5.1233,-5.1283,-5.1389,-5.1471,-5.1519,-5.1601,-5.1676,-5.1777,-5.1825,-5.1943,-5.2007,-5.21,-5.2118,-5.2038,-5.2328,-5.2222,-5.2345,-5.2345,-5.2404,-5.24,-5.2752,-5.2451,-5.2451,-5.245,-5.2449,0,-5.1133,-5.1285,-5.1321,-5.1427,-5.1597,-5.1607,-5.1775,-5.1817,-5.1891,-5.2006,-5.1982,-5.209,-5.2109,-5.2222,-5.2238,-5.2408,-5.2438,-5.2456,-5.2457,-5.2456,-5.2454,-5.2497,-5.248,-5.246,-5.2457,-5.2456,-5.2454,0,-5.1374,-5.1405,-5.1591,-5.1678,-5.1703,-5.1825,-5.1899,-5.2001,-5.2032,-5.2178,-5.2213,-5.2262,-5.2394,-5.2422,-5.2579,-5.259,-5.2792,-5.2779,-5.2761,-5.2759,-5.288,-5.2868,-5.327,-5.3323,-5.299,-5.2993,-5.2996,0,-5.1542,-5.1659,-5.1758,-5.1833,-5.1886,-5.2007,-5.2083,-5.2098,-5.2178,-5.229,-5.2379,-5.2509,-5.2613,-5.2826,-5.2876,-5.2997,-5.2985,-5.3118,-5.3002,-5.2998,-5.2985,-5.2976,-5.2988,-5.3139,-5.3142,-5.3145,-5.3148,0,-5.1838,-5.1848,-5.1958,-5.2075,-5.2167,-5.226,-5.2348,-5.2411,-5.2439,-5.2531,-5.2666,-5.2747,-5.2908,-5.3037,-5.3158,-5.3209,-5.3183,-5.3184,-5.3219,-5.3217,-5.3201,-5.3209,-5.2819,-5.3174,-5.3171,-5.3169,-5.3168,-5.3167,-5.2046,-5.2148,-5.2234,-5.2359,-5.2427,-5.2511,-5.2612,-5.2656,-5.2769,-5.29,-5.2904,-5.3051,-5.3139,-5.3299,-5.3358,-5.3474,-5.3433,-5.3483,-5.3495,-5.3507,-5.3517,-5.3186,-5.3497,-5.3496,-5.3495,-5.3495,-5.3494,0,-5.2338,-5.2393,-5.2508,-5.2632,-5.2731,-5.27,-5.2797,-5.2881,-5.3011,-5.3095,-5.3199,-5.3355,-5.3481,-5.3542,-5.3667,-5.3748,-5.374,-5.3781,-5.3773,-5.3785,-5.3548,-5.3504,-5.3785,-5.3785,-5.3785,-5.3785,-5.3785,-5.3785,-5.2501,-5.2672,-5.2693,-5.2898,-5.2952,-5.3095,-5.3153,-5.3231,-5.3299,-5.3474,-5.3578,-5.3618,-5.3694,-5.3825,-5.3939,-5.3954,-5.4,-5.4046,-5.4056,-5.3832,-5.3802,-5.3774,-5.3733,-5.4057,-5.4057,-5.4283,-5.4285,-5.4287]},{"header":{"parameterUnit":"m.s-1","parameterCategory":1,"la1":30.2991,"la2":30.254,"lo1":-89.0895,"lo2":-89.0444,"dy":0.0017,"dx":0.0017,"nx":28,"ny":28,"refTime":"2024-12-23T09:00:00:Z","depth":0,"parameterNumber":3,"parameterNumberName":"V-component_of_WINDS"},"data":[0,0,0,0,0,0,0,0,0,0,0,0,0,0,0,0,0,0,0,0,0,0,0,0,0,0,0,0,0,0,0,0,0,0,0,0,0,0,0,0,0,0,0,0,0,0,0,0,0,0,0,0,0,0,0,0,0,0,0.5805,0.5806,0,0.5906,0.5907,0.5908,0.5953,0.5953,0.5952,0.5952,0.6054,0.6057,0.606,0,0,0,0,0,0,0,0,0,0,0,0,0,0.5651,0.5654,0.5805,0.5806,0.5807,0.5906,0.5907,0.5908,0.5953,0.5953,0.5952,0.5952,0.6054,0.6057,0.606,0,0,0,0,0,0,0,0,0,0,0,0,0,0.5731,0.5654,0.5805,0.5841,0.5846,0.5905,0.5907,0.5909,0.5953,0.5953,0.5952,0.5952,0.6052,0.6057,0.6061,0.6091,0,0,0.6074,0.6076,0,0,0,0,0,0,0,0,0.5727,0.5737,0.5835,0.5839,0.5844,0.5917,0.589,0.597,0.5953,0.5912,0.5952,0.5952,0.6009,0.6016,0.6036,0.6096,0.61,0.6074,0.6077,0.6079,0.608,0,0,0,0,0,0,0,0.5721,0.5733,0.5845,0.5836,0.5842,0.5853,0.5864,0.5906,0.596,0.5916,0.5919,0.5931,0.6011,0.6032,0.6039,0.6102,0.6074,0.6078,0.608,0.6082,0.6194,0.6195,0,0,0,0,0,0,0.571,0.5728,0.5842,0.5848,0.5784,0.5856,0.5868,0.5893,0.596,0.597,0.5931,0.5932,0.6024,0.6034,0.6042,0.6083,0.6079,0.6083,0.6085,0.6194,0.6194,0.6195,0,0,0,0,0,0,0.5706,0.5719,0.5837,0.5789,0.5805,0.5859,0.5886,0.5895,0.5916,0.5971,0.5981,0.5941,0.6025,0.6036,0.6079,0.6088,0.6084,0.6088,0.6193,0.6194,0.6194,0.6165,0,0,0,0,0,0,0.5702,0.5718,0.5729,0.5789,0.5807,0.5872,0.5887,0.5898,0.5923,0.5926,0.5984,0.5993,0.6025,0.6073,0.6083,0.6093,0.6092,0.6193,0.6194,0.6194,0.6165,0.6164,0.6164,0,0,0,0,0,0.5696,0.5716,0.573,0.5743,0.5823,0.5873,0.5883,0.592,0.5924,0.5936,0.5972,0.5992,0.6085,0.6077,0.6089,0.61,0.6192,0.6193,0.6194,0.6166,0.6165,0.6164,0,0,0,0,0,0,0.5655,0.5725,0.574,0.5781,0.5821,0.588,0.5897,0.5917,0.5956,0.5958,0.6001,0.6014,0.6053,0.6081,0.6071,0.6135,0.6141,0.6144,0.6114,0.6114,0.6113,0.6105,0.6095,0,0,0,0,0,0.5651,0.5686,0.5745,0.5774,0.5794,0.5842,0.5865,0.589,0.5933,0.595,0.5989,0.6029,0.6068,0.6093,0.6131,0.617,0.6184,0.6184,0.6183,0.6182,0.6185,0.6209,0.621,0.6198,0.6198,0.6198,0,0,0.5642,0.5685,0.5704,0.5767,0.5801,0.5837,0.5856,0.5891,0.5918,0.5955,0.5998,0.6029,0.6077,0.6118,0.6139,0.6143,0.6191,0.6184,0.6182,0.6185,0.621,0.6211,0.6212,0.6198,0.6198,0.6198,0,0,0.5645,0.568,0.571,0.5744,0.5796,0.5828,0.5835,0.5892,0.5914,0.5959,0.5988,0.602,0.6086,0.612,0.6146,0.6164,0.6184,0.6176,0.6171,0.6194,0.6195,0.6196,0.6203,0.6205,0.6178,0.6178,0.6178,0,0.5627,0.5682,0.5722,0.5757,0.5785,0.5822,0.5852,0.5884,0.5945,0.5963,0.5968,0.6052,0.6087,0.6138,0.6143,0.6162,0.6172,0.6169,0.6191,0.6193,0.6194,0.6202,0.6204,0.6176,0.6177,0.6177,0.6177,0,0.5658,0.5696,0.5714,0.5773,0.5803,0.5836,0.5881,0.5907,0.593,0.5962,0.6008,0.6052,0.6101,0.6115,0.6138,0.617,0.6171,0.6183,0.6189,0.6193,0.6201,0.6204,0.6175,0.6175,0.6175,0.6176,0,0,0.5635,0.5719,0.5725,0.5754,0.5815,0.5844,0.588,0.5929,0.595,0.5992,0.6023,0.6079,0.6091,0.612,0.6147,0.6168,0.6181,0.6177,0.6179,0.6177,0.622,0.621,0.6213,0.6195,0.6195,0.6196,0.6216,0,0.5646,0.5711,0.575,0.5799,0.5835,0.5871,0.5902,0.5943,0.5975,0.601,0.6045,0.6084,0.6097,0.6115,0.6137,0.6174,0.619,0.6174,0.6224,0.6225,0.621,0.6217,0.6206,0.6223,0.6219,0.622,0.622,0,0.5667,0.5709,0.5762,0.5821,0.5838,0.5865,0.5914,0.5947,0.5995,0.6017,0.6051,0.6079,0.6118,0.6123,0.6178,0.6166,0.619,0.6211,0.6213,0.6218,0.6222,0.6222,0.6229,0.6231,0.6225,0.6225,0.6224,0,0.5645,0.5716,0.5757,0.578,0.585,0.5869,0.5899,0.5947,0.5974,0.6018,0.6036,0.6083,0.6108,0.6144,0.6184,0.6184,0.6236,0.6244,0.6255,0.6254,0.6264,0.6262,0.6274,0.6279,0.6279,0.6279,0.6279,0,0.5653,0.5684,0.5749,0.5774,0.581,0.5855,0.589,0.5923,0.5966,0.5999,0.6034,0.6064,0.6115,0.6152,0.6183,0.6225,0.6236,0.6255,0.6263,0.6252,0.6249,0.6267,0.6267,0.628,0.6279,0.6279,0.6279,0,0.5634,0.5679,0.5727,0.579,0.5807,0.5831,0.5885,0.5912,0.5946,0.5987,0.6,0.6054,0.6099,0.6143,0.6203,0.6224,0.6266,0.6276,0.6249,0.6254,0.6263,0.6262,0.6286,0.6291,0.6293,0.6293,0.6293,0,0.5636,0.5661,0.5728,0.5753,0.5782,0.5822,0.5851,0.5897,0.5926,0.5984,0.6004,0.6052,0.6092,0.6163,0.6207,0.6254,0.6266,0.6272,0.6273,0.6262,0.6267,0.6264,0.6268,0.627,0.627,0.627,0.6269,0,0.5634,0.5656,0.5696,0.5746,0.578,0.5821,0.5862,0.5881,0.5935,0.5966,0.6014,0.6045,0.6108,0.6155,0.6208,0.6239,0.6263,0.6269,0.6274,0.6262,0.6246,0.6255,0.6246,0.6268,0.6268,0.6268,0.6268,0.6268,0.5626,0.565,0.5702,0.5747,0.5784,0.5823,0.5851,0.5891,0.5931,0.5986,0.6011,0.6059,0.6109,0.6182,0.6213,0.6251,0.6257,0.6264,0.6266,0.6267,0.6265,0.6241,0.6261,0.6261,0.6261,0.6261,0.6261,0,0.5626,0.5662,0.5703,0.5761,0.5797,0.5819,0.5867,0.5895,0.5937,0.5982,0.6022,0.6077,0.6124,0.6173,0.6223,0.6245,0.6257,0.6256,0.6255,0.6262,0.6257,0.6247,0.6245,0.6245,0.6245,0.6245,0.6245,0.6245,0.563,0.5673,0.5702,0.5764,0.58,0.5848,0.5874,0.591,0.5946,0.6007,0.6046,0.6079,0.6126,0.618,0.6224,0.6238,0.6254,0.625,0.6267,0.6261,0.6262,0.6263,0.6254,0.6253,0.6253,0.6268,0.6269,0.6269]}]]